Location: Brookview Estates
(36.0476°N, 86.6931°W)
Time: 23:05:58
(UTC+00:00)

PSLV R/B - Pass Details

Date: 30 March 2020
Orbit: 594 x 629 km, 97.9° (Epoch: 27 May)

Event Time Altitude Azimuth Distance (km) Brightness Sun altitude
Rises 09:44:53 0° 9° (N) 2,905 7.4 -22.4°
Reaches altitude 10° 09:47:05 10° 7° (N) 1,999 6.5 -22.0°
Maximum altitude 09:51:25 70° 284° (WNW) 668 3.5 -21.2°
Enters shadow 09:52:14 55° 225° (SW) 758 3.6 -21.0°
